FW0097 Weather Reports


Display with metric or nautical units.
time (UTC)temp
F
wind
direction
speed
MPH
gust
MPH
rain 1hr
in
rain 24hr
in
rain mn
in
humidity
%
barometer
mb
20220705230027 61 52 0.0 0.0 0.00 0.35 0.00 93 1015.8
20220705224533 61 52 0.0 0.0 0.00 0.35 0.00 93 1016.1
20220705223121 60 52 0.0 0.0 0.00 0.35 0.00 93 1016.0
20220705221524 60 52 0.0 0.0 0.00 0.35 0.00 92 1016.0
20220705220047 61 52 0.0 0.0 0.00 0.35 0.00 92 1015.9
20220705214606 61 52 0.0 0.0 0.00 0.35 0.35 92 1015.8
20220705213043 61 52 0.0 0.0 0.00 0.35 0.35 92 1015.8
20220705211543 62 266 0.0 0.0 0.00 0.35 0.35 91 1015.8
20220705210044 62 266 0.0 0.0 0.00 0.35 0.35 91 1015.9
20220705204541 61 350 0.0 0.0 0.00 0.35 0.35 91 1015.7
20220705203038 61 40 0.0 0.0 0.00 0.35 0.35 91 1015.4
20220705201538 62 10 0.0 0.0 0.00 0.35 0.35 91 1015.4
20220705200039 62 346 0.0 0.0 0.00 0.35 0.35 90 1015.5
20220705194536 62 17 0.0 0.0 0.00 0.35 0.35 90 1015.6
20220705193038 62 20 0.0 0.0 0.00 0.35 0.35 91 1015.4
20220705191532 62 31 0.0 0.0 0.00 0.35 0.35 91 1015.3
20220705190031 62 39 0.0 0.0 0.00 0.35 0.35 91 1015.2
20220705184530 62 360 0.0 0.0 0.00 0.35 0.35 90 1015.3
20220705183038 63 19 0.0 0.0 0.00 0.35 0.35 90 1015.2
20220705181532 63 348 0.0 3.0 0.00 0.35 0.35 91 1015.0
20220705180023 63 321 0.0 0.0 0.01 0.35 0.35 92 1014.9
20220705174522 64 325 0.0 0.0 0.02 0.35 0.35 93 1014.8
20220705173019 64 322 0.0 1.0 0.08 0.35 0.35 93 1014.9
20220705171518 64 5 0.0 2.0 0.11 0.35 0.35 93 1014.7
20220705170016 65 355 0.0 3.0 0.10 0.35 0.35 93 1014.5
20220705164514 65 355 0.0 0.0 0.10 0.33 0.33 93 1014.5
20220705163011 66 311 0.0 2.0 0.05 0.27 0.27 93 1014.5
20220705160008 66 334 0.0 0.0 0.05 0.24 0.24 93 1014.5
20220705154513 66 333 0.0 0.0 0.05 0.23 0.23 93 1014.7
20220705153036 66 340 0.0 0.0 0.06 0.22 0.22 92 1014.9
20220705151538 67 337 0.0 0.0 0.04 0.20 0.20 92 1014.9
20220705150006 66 305 0.0 0.0 0.04 0.20 0.20 91 1014.7
20220705144506 66 338 0.0 1.0 0.04 0.18 0.18 91 1014.8
20220705143002 67 337 0.0 0.0 0.03 0.17 0.17 92 1014.8
20220705141504 66 355 0.0 3.0 0.03 0.17 0.17 91 1014.8
20220705140002 67 316 0.0 5.0 0.02 0.16 0.16 92 1014.9
20220705134504 67 324 0.0 4.0 0.01 0.14 0.14 92 1014.9
20220705133100 67 328 0.0 4.0 0.00 0.13 0.13 92 1014.9
20220705131559 67 355 0.0 1.0 0.00 0.13 0.13 92 1015.1
20220705130058 67 323 0.0 1.0 0.00 0.13 0.13 92 1015.1
20220705124602 67 333 0.0 5.0 0.00 0.13 0.13 91 1015.1
20220705123055 67 5 0.0 4.0 0.01 0.13 0.13 91 1015.1
20220705121554 67 11 0.0 1.0 0.01 0.13 0.13 92 1015.3
20220705120054 67 355 0.0 4.0 0.02 0.13 0.13 92 1015.3
20220705114602 67 340 0.0 1.0 0.03 0.13 0.13 92 1015.5
20220705113051 67 348 0.0 1.0 0.03 0.13 0.13 92 1015.5
20220705111551 67 341 0.0 0.0 0.05 0.13 0.13 92 1015.4
20220705110052 67 355 0.0 0.0 0.05 0.12 0.12 92 1015.7
20220705104547 67 328 0.0 0.0 0.05 0.10 0.10 91 1015.6
20220705103046 67 340 0.0 0.0 0.06 0.09 0.09 90 1016.0
20220705101548 67 342 0.0 0.0 0.04 0.08 0.08 90 1016.0
20220705100042 67 340 0.0 0.0 0.05 0.07 0.07 90 1016.0
20220705094540 67 336 0.0 0.0 0.03 0.06 0.06 90 1015.7
20220705093039 67 336 0.0 0.0 0.02 0.04 0.04 89 1015.7
20220705091536 67 336 0.0 0.0 0.03 0.04 0.04 89 1015.7
20220705090135 67 337 0.0 0.0 0.02 0.02 0.02 88 1015.6
20220705084536 68 335 0.0 0.0 0.02 0.02 0.02 88 1015.6
20220705083040 68 21 0.0 0.0 0.01 0.02 0.02 86 1015.5
20220705081534 68 21 0.0 0.0 0.00 0.01 0.01 86 1015.6
20220705080037 68 360 0.0 0.0 0.00 0.01 0.01 85 1015.6
20220705074537 68 350 0.0 0.0 0.00 0.01 0.01 84 1015.6
20220705073031 68 29 0.0 0.0 0.00 0.01 0.01 84 1015.4
20220705071528 68 360 0.0 0.0 0.00 0.01 0.01 83 1015.4
20220705070025 67 65 0.0 0.0 0.00 0.01 0.01 83 1015.3
20220705064522 67 16 0.0 2.0 0.00 0.01 0.01 84 1015.1
20220705063027 67 5 0.0 6.0 0.00 0.01 0.01 84 1015.0
20220705061519 67 13 0.0 1.0 0.00 0.01 0.01 84 1015.1
20220705060018 67 33 0.0 1.0 0.00 0.01 0.01 84 1014.9
20220705054517 67 329 0.0 5.0 0.00 0.01 0.01 84 1014.9
20220705053016 67 344 0.0 1.0 0.00 0.01 0.01 84 1014.8
20220705051513 67 355 0.0 5.0 0.00 0.01 0.01 83 1014.7
20220705050020 67 344 0.0 1.0 0.00 0.01 0.01 84 1014.7
20220705044510 68 355 0.0 0.0 0.00 0.01 0.01 84 1014.8
20220705043012 67 48 0.0 0.0 0.00 0.01 0.01 85 1014.7
20220705041505 67 5 0.0 0.0 0.01 0.01 0.01 86 1014.7
20220705040007 67 69 0.0 0.0 0.01 0.01 0.01 87 1014.7
20220705034501 66 355 0.0 0.0 0.01 0.01 0.01 88 1014.7
20220705033100 66 47 0.0 0.0 0.01 0.01 0.01 89 1014.8
20220705031602 66 30 0.0 0.0 0.00 0.00 0.00 87 1014.7
20220705030054 67 9 0.0 0.0 0.00 0.00 0.00 87 1014.8
20220705023051 69 86 0.0 0.0 0.00 0.00 0.00 78 1015.0
20220705021549 68 92 0.0 0.0 0.00 0.00 0.00 79 1014.9
20220705020048 68 100 0.0 0.0 0.00 0.00 0.00 80 1014.7
20220705014547 68 138 0.0 0.0 0.00 0.00 0.00 83 1014.7
20220705013045 68 142 0.0 0.0 0.00 0.00 0.00 83 1014.7
20220705011542 69 71 0.0 0.0 0.00 0.00 0.00 77 1014.8
20220705010041 68 70 0.0 0.0 0.00 0.00 0.00 79 1014.8
20220705004542 69 69 0.0 0.0 0.00 0.00 0.00 78 1014.9
20220705003037 69 67 0.0 1.0 0.00 0.00 0.00 79 1015.1
20220705001531 70 118 0.0 0.0 0.00 0.00 0.00 76 1015.4
20220705000034 70 118 0.0 0.0 0.00 0.00 0.00 75 1015.5
20220704234529 71 142 0.0 5.0 0.00 0.00 0.00 72 1015.7
20220704233026 71 128 0.0 4.0 0.00 0.00 0.00 70 1015.3
20220704231527 72 154 0.0 0.0 0.00 0.00 0.00 70 1015.5